"2009-04-05 00:00:30",772176,18.57,43.92,3.736,1.769,3.637,98.35956,-4.879,-3.65,60.11,0,109.3,13.74,-4.14,5.9
"2009-04-05 00:01:00",772177,16.61,41.49,4.107,1.84,3.866,98.3578,-4.883,-3.648,59.52,0,109.3,13.74,-4.15,3.5
"2009-04-05 00:01:30",772178,16.59,41.53,3.961,1.487,3.727,98.34844,-4.907,-3.649,59.01,0,109.3,13.74,-4.17,3.5
"2009-04-05 00:02:00",772179,13.92,38.35,3.631,0.794,3.712,98.34645,-4.912,-3.679,59.25,0,109.3,13.74,-4.18,0.3
"2009-04-05 00:02:30",772180,13.86,38,4.372,0.844,3.784,98.34444,-4.917,-3.665,60.71,0,109.3,13.74,-4.18,0.0
"2009-04-05 00:03:00",772181,14.49,39.44,4.234,1.171,3.872,98.34077,-4.927,-3.663,60.67,0,109.3,13.74,-4.19,1.4
"2009-04-05 00:03:30",772182,15.06,39.47,4.416,1.147,3.666,98.34047,-4.928,-3.649,59.74,0,109.3,13.74,-4.19,1.5
"2009-04-05 00:04:00",772183,13.59,38,4.236,0.767,3.605,98.33931,-4.931,-3.667,59.26,0,109.3,13.74,-4.20,0.0
"2009-04-05 00:04:30",772184,14.57,39.96,4.3,1.558,3.515,98.33652,-4.938,-3.689,59.63,0,109.3,13.73,-4.20,2.0
"2009-04-05 00:05:00",772185,14.99,41.25,4.428,1.913,3.726,98.33537,-4.941,-3.691,59.45,0,109.3,13.73,-4.21,3.2
"2009-04-05 00:05:30",772186,17.12,43,4.336,1.867,3.667,98.33395,-4.944,-3.684,59.34,0,109.3,13.73,-4.21,5.0
"2009-04-05 00:06:00",772187,15.17,41.38,3.901,1.306,3.553,98.33226,-4.948,-3.688,60.48,0,109.3,13.73,-4.21,3.4
"2009-04-05 00:06:30",772188,14.72,39.86,4.85,1.64,3.775,98.32913,-4.956,-3.667,60.39,0,109.3,13.73,-4.22,1.9
"2009-04-05 00:07:00",772189,16.54,42.64,3.795,1.575,3.713,98.32858,-4.958,-3.679,60.62,0,109.3,13.73,-4.22,4.6
"2009-04-05 00:07:30",772190,16.33,42.78,4.726,1.488,3.632,98.32942,-4.956,-3.699,60.85,0,109.3,13.73,-4.22,4.8
"2009-04-05 00:08:00",772191,16.96,45.04,4.067,1.502,3.634,98.32997,-4.954,-3.69,61.65,0,109.3,13.73,-4.22,7.0
"2009-04-05 00:08:30",772192,15.39,41.66,4.688,0.997,3.75,98.3297,-4.955,-3.706,61.79,0,109.3,13.73,-4.22,3.7
"2009-04-05 00:09:00",772193,15.21,41.02,5.274,1.851,3.814,98.33081,-4.952,-3.719,60.83,0,109.3,13.73,-4.22,3.0
"2009-04-05 00:09:30",772194,16.22,44.48,4.73,1.343,3.699,98.32825,-4.959,-3.715,61.89,0,109.3,13.73,-4.22,6.5
"2009-04-05 00:10:00",772195,14.52,42.67,4.01,1.816,3.631,98.31435,-4.994,-3.699,62.47,0,109.3,13.74,-4.26,4.7
"2009-04-05 00:10:30",772196,15.92,43.98,4.183,1.533,3.634,98.30642,-5.014,-3.744,62.87,0,109.3,13.73,-4.28,6.0
"2009-04-05 00:11:00",772197,16.27,45.28,4.645,2.477,3.84,98.30247,-5.024,-3.745,63.07,0,109.3,13.74,-4.29,7.3
"2009-04-05 00:11:30",772198,14.82,41.81,4.341,2.109,3.738,98.2979,-5.036,-3.744,63.15,0,109.3,13.74,-4.30,3.8
"2009-04-05 00:12:00",772199,16.25,43,4.669,1.859,3.607,98.29762,-5.037,-3.737,63.89,0,109.3,13.74,-4.30,5.0
"2009-04-05 00:12:30",772200,16.17,41.22,4.012,1.311,3.613,98.29623,-5.04,-3.771,62.39,0,109.3,13.74,-4.31,3.2
"2009-04-05 00:13:00",772201,16.77,43.09,3.274,1.663,3.738,98.29846,-5.035,-3.779,61.67,0,109.3,13.74,-4.30,5.1
"2009-04-05 00:13:30",772202,17.64,42.48,4.756,1.864,3.781,98.29846,-5.035,-3.795,62.08,0,109.2,13.74,-4.30,4.5
"2009-04-05 00:14:00",772203,17.35,44.22,3.179,1.79,3.662,98.2979,-5.036,-3.786,62.27,0,109.3,13.74,-4.30,6.2
"2009-04-05 00:14:30",772204,17.19,42.72,4.587,1.943,3.68,98.29623,-5.04,-3.797,63.07,0,109.3,13.74,-4.31,4.7
"2009-04-05 00:15:00",772205,16.21,42.49,3.86,1.44,3.895,98.2965,-5.04,-3.791,63.31,0,109.3,13.74,-4.31,4.5
"2009-04-05 00:15:30",772206,16.8,43.38,3.977,1.158,3.645,98.2897,-5.057,-3.817,63,0,109.3,13.74,-4.32,5.4
"2009-04-05 00:16:00",772207,15.86,41.1,3.994,1.301,3.622,98.27975,-5.082,-3.819,62.08,0,109.3,13.74,-4.35,3.1
"2009-04-05 00:16:30",772208,14.86,40.15,4.321,1.048,3.734,98.27351,-5.098,-3.816,61.81,0,109.3,13.74,-4.36,2.2
"2009-04-05 00:17:00",772209,16.2,42.77,4.363,1.593,3.791,98.2704,-5.106,-3.83,61.8,0,109.3,13.74,-4.37,4.8
"2009-04-05 00:17:30",772210,15.73,41.57,4.363,1.614,3.665,98.26842,-5.111,-3.823,62.77,0,109.3,13.74,-4.38,3.6
"2009-04-05 00:18:00",772211,15.32,41.32,4.12,1.265,3.63,98.26586,-5.118,-3.848,61.5,0,109.3,13.74,-4.38,3.3
"2009-04-05 00:18:30",772212,18.32,44.59,3.997,1.441,3.577,98.26388,-5.123,-3.847,61.69,0,109.3,13.74,-4.39,6.6
"2009-04-05 00:19:00",772213,18.8,44.13,3.608,2.205,3.784,98.26415,-5.122,-3.858,61.88,0,109.3,13.74,-4.39,6.1
"2009-04-05 00:19:30",772214,17.81,42.59,4.053,1.513,3.619,98.26472,-5.12,-3.855,61.04,0,109.3,13.74,-4.39,4.6
"2009-04-05 00:20:00",772215,19.59,44.56,4.568,2.199,3.742,98.26472,-5.12,-3.835,60.89,0,109.2,13.73,-4.39,6.6
"2009-04-05 00:20:30",772216,17.55,42.69,4.504,2.172,3.78,98.26443,-5.121,-3.853,60.98,0,109.3,13.74,-4.39,4.7
"2009-04-05 00:21:00",772217,15.34,43.45,4.278,1.789,3.845,98.26332,-5.124,-3.862,61.95,0,109.3,13.73,-4.39,5.5
"2009-04-05 00:21:30",772218,17.02,44.49,4.571,1.599,3.715,98.26472,-5.12,-3.852,63.42,0,109.3,13.73,-4.39,6.5
"2009-04-05 00:22:00",772219,15.69,44.16,4.294,1.473,3.667,98.26443,-5.121,-3.858,63.72,0,109.3,13.73,-4.39,6.2
"2009-04-05 00:22:30",772220,14.12,41.46,4.759,1.052,3.677,98.26415,-5.122,-3.861,63.66,0,109.2,13.73,-4.39,3.5
"2009-04-05 00:23:00",772221,16.74,43.93,3.367,2.644,3.704,98.26472,-5.12,-3.875,62.99,0,109.3,13.73,-4.39,5.9
"2009-04-05 00:23:30",772222,15.84,41.98,3.475,1.512,3.549,98.26472,-5.12,-3.858,63.57,0,109.3,13.73,-4.39,4.0
"2009-04-05 00:24:00",772223,18.51,44.23,3.891,1.999,3.714,98.26415,-5.122,-3.876,62.56,0,109.3,13.73,-4.39,6.2
"2009-04-05 00:24:30",772224,18.62,44.01,4.319,1.818,3.699,98.26472,-5.12,-3.883,61.33,0,109.3,13.73,-4.39,6.0
"2009-04-05 00:25:00",772225,21.03,46.5,3.947,1.2,3.868,98.26472,-5.12,-3.889,61.21,0,109.3,13.73,-4.39,8.5
"2009-04-05 00:25:30",772226,18.38,43.44,4.037,1.91,3.844,98.26472,-5.12,-3.9,61.42,0,109.2,13.73,-4.39,5.4
"2009-04-05 00:26:00",772227,16.51,42.64,3.79,2.071,3.679,98.26443,-5.121,-3.889,62.11,0,109.3,13.74,-4.39,4.6
"2009-04-05 00:26:30",772228,18.39,44.4,5.559,1.929,3.919,98.26472,-5.12,-3.895,61.91,0,109.2,13.74,-4.39,6.4
"2009-04-05 00:27:00",772229,16.37,42.56,3.912,1.631,3.963,98.26472,-5.12,-3.897,62.93,0,109.2,13.74,-4.39,4.6
"2009-04-05 00:27:30",772230,16.63,42.3,5.369,2.488,3.741,98.26386,-5.123,-3.895,62.91,0,109.3,13.74,-4.39,4.3
"2009-04-05 00:28:00",772231,18.9,44.27,4.126,1.503,3.661,98.25762,-5.139,-3.886,62.21,0,109.3,13.74,-4.40,6.3
"2009-04-05 00:28:30",772232,16.06,40.31,3.573,1.566,3.882,98.25451,-5.146,-3.908,61.24,0,109.3,13.74,-4.41,2.3
"2009-04-05 00:29:00",772233,17.88,44.5,3.336,2.353,3.728,98.25536,-5.144,-3.912,60.89,0,109.3,13.74,-4.41,6.5
"2009-04-05 00:29:30",772234,18.55,43.4,4.439,1.242,3.757,98.25536,-5.144,-3.92,60.85,0,109.2,13.74,-4.41,5.4
"2009-04-05 00:30:00",772235,17.63,42.88,4.351,1.71,3.782,98.25365,-5.149,-3.905,60.5,0,109.2,13.74,-4.41,4.9
"2009-04-05 00:30:30",772236,14.96,40.77,3.699,1.299,3.775,98.25195,-5.153,-3.918,60.79,0,109.3,13.74,-4.42,2.8
"2009-04-05 00:31:00",772237,15.97,40.51,3.458,0.952,3.841,98.24827,-5.162,-3.918,60.03,0,109.3,13.74,-4.43,2.5
"2009-04-05 00:31:30",772238,17.87,42.44,4.284,1.908,3.776,98.24798,-5.163,-3.904,58.23,0,109.3,13.74,-4.43,4.4
"2009-04-05 00:32:00",772239,17.18,41.11,4.269,1.024,3.737,98.24855,-5.162,-3.923,58.63,0,109.2,13.74,-4.43,3.1
"2009-04-05 00:32:30",772240,17.79,43.2,4.374,1.556,3.726,98.24912,-5.16,-3.926,58.79,0,109.3,13.74,-4.43,5.2
"2009-04-05 00:33:00",772241,18.84,45.02,4.225,1.309,3.798,98.24855,-5.162,-3.921,59.48,0,109.2,13.74,-4.43,7.0
"2009-04-05 00:33:30",772242,16.22,40.39,4.532,1.398,3.796,98.24714,-5.165,-3.931,60.83,0,109.2,13.74,-4.43,2.4
"2009-04-05 00:34:00",772243,15.35,40.06,4.698,1.408,3.693,98.24714,-5.165,-3.917,61.42,0,109.2,13.74,-4.43,2.1
"2009-04-05 00:34:30",772244,15.41,40.53,4.533,2.173,3.712,98.24345,-5.175,-3.893,62.6,0,109.2,13.74,-4.44,2.5
"2009-04-05 00:35:00",772245,18.68,43.45,4.765,1.809,3.84,98.24061,-5.182,-3.911,62.11,0,109.2,13.74,-4.45,5.5
"2009-04-05 00:35:30",772246,19.43,45.56,2.83,1.36,3.591,98.24118,-5.18,-3.925,61.75,0,109.2,13.74,-4.45,7.6
"2009-04-05 00:36:00",772247,18.6,47.75,4.195,1.301,3.784,98.23919,-5.185,-3.927,62.01,0,109.2,13.74,-4.45,9.8
"2009-04-05 00:36:30",772248,14.88,40.83,5.057,1.37,3.765,98.23778,-5.189,-3.908,63.3,0,109.2,13.74,-4.46,2.8
"2009-04-05 00:37:00",772249,18.25,43.89,4.599,2.176,3.777,98.23352,-5.2,-3.901,63.86,0,109.2,13.74,-4.47,5.9
"2009-04-05 00:37:30",772250,16.44,43.21,3.836,2.023,3.652,98.23097,-5.206,-3.923,63.84,0,109.2,13.74,-4.47,5.2
"2009-04-05 00:38:00",772251,17.61,44.68,4.135,2.176,3.787,98.23069,-5.207,-3.927,63.66,0,109.2,13.74,-4.47,6.7
"2009-04-05 00:38:30",772252,17.73,42.11,3.514,1.336,3.71,98.23069,-5.207,-3.925,62.58,0,109.2,13.74,-4.47,4.1
"2009-04-05 00:39:00",772253,18.49,43.07,3.752,1.68,3.836,98.23069,-5.207,-3.944,60.7,0,109.2,13.74,-4.47,5.1
"2009-04-05 00:39:30",772254,18.12,43.96,4.289,2.674,3.647,98.23069,-5.207,-3.962,61.75,0,109.2,13.74,-4.47,6.0
"2009-04-05 00:40:00",772255,17.3,42.91,4.715,1.932,3.678,98.23069,-5.207,-3.958,63.08,0,109.2,13.74,-4.47,4.9
"2009-04-05 00:40:30",772256,18.3,46.33,4.05,2.479,3.57,98.23069,-5.207,-3.95,62.52,0,109.2,13.74,-4.47,8.3
"2009-04-05 00:41:00",772257,16.53,40.04,6.303,1.969,3.906,98.23069,-5.207,-3.945,63.57,0,109.2,13.74,-4.47,2.0
"2009-04-05 00:41:30",772258,18.78,43.8,4.072,1.721,3.741,98.23069,-5.207,-3.948,62.88,0,109.2,13.74,-4.47,5.8
"2009-04-05 00:42:00",772259,16.84,43.06,3.613,2.11,3.601,98.23069,-5.207,-3.949,62.9,0,109.2,13.74,-4.47,5.1
"2009-04-05 00:42:30",772260,15.9,40.35,3.797,1.247,3.809,98.23069,-5.207,-3.961,62.79,0,109.2,13.74,-4.47,2.3
"2009-04-05 00:43:00",772261,19.91,43.14,4.135,2.153,3.843,98.23069,-5.207,-3.956,61.44,0,109.2,13.74,-4.47,5.1
"2009-04-05 00:43:30",772262,16.16,39.84,3.752,1.555,3.769,98.2304,-5.208,-3.971,59.7,0,109.2,13.74,-4.47,1.8
"2009-04-05 00:44:00",772263,14.79,40.34,3.876,1.357,3.625,98.22984,-5.209,-3.973,59.94,0,109.2,13.74,-4.48,2.3
"2009-04-05 00:44:30",772264,18.82,45.32,3.64,2.285,3.491,98.23012,-5.209,-3.983,60.93,0,109.2,13.74,-4.47,7.3
"2009-04-05 00:45:00",772265,17.15,40.34,4.403,2.323,3.765,98.2253,-5.221,-3.968,60.66,0,109.2,13.74,-4.49,2.3
"2009-04-05 00:45:30",772266,16.5,42.61,3.974,3.222,3.442,98.21594,-5.245,-4.004,60.21,0,109.2,13.74,-4.51,4.6
"2009-04-05 00:46:00",772267,15.37,41.24,3.796,2.283,3.662,98.21197,-5.255,-3.984,61.08,0,109.2,13.74,-4.52,3.2
"2009-04-05 00:46:30",772268,16.37,40.99,3.354,1.488,3.518,98.20545,-5.271,-3.995,60.07,0,109.2,13.74,-4.54,3.0
"2009-04-05 00:47:00",772269,18.23,42.67,4.014,2.562,3.672,98.2029,-5.278,-3.988,58.49,0,109.2,13.74,-4.54,4.7
"2009-04-05 00:47:30",772270,18.58,41.8,3.986,1.351,3.677,98.2029,-5.278,-4.015,58.12,0,109.2,13.74,-4.54,3.8
"2009-04-05 00:48:00",772271,18.82,42.35,3.811,2.349,3.659,98.20347,-5.276,-4.005,57.62,0,109.2,13.74,-4.54,4.3
"2009-04-05 00:48:30",772272,17.34,41.12,3.254,1.517,3.783,98.20687,-5.268,-3.988,57.12,0,109.2,13.74,-4.53,3.1
"2009-04-05 00:49:00",772273,16.33,41.28,3.526,1.835,3.814,98.21197,-5.255,-4.009,57.19,0,109.2,13.74,-4.52,3.3
"2009-04-05 00:49:30",772274,17.61,41.16,4.518,2.041,3.748,98.21679,-5.242,-4.002,57.23,0,109.2,13.74,-4.51,3.2
"2009-04-05 00:50:00",772275,17.28,42.72,5.124,2.464,3.611,98.21992,-5.235,-4.001,58.05,0,109.2,13.74,-4.50,4.7
"2009-04-05 00:50:30",772276,15.59,39.85,3.365,0.913,3.691,98.21822,-5.239,-3.992,58.12,0,109.2,13.74,-4.51,1.8
"2009-04-05 00:51:00",772277,15.55,41.01,3.24,1.165,3.701,98.22275,-5.227,-3.994,56.9,0,109.2,13.74,-4.49,3.0
"2009-04-05 00:51:30",772278,16.41,41.95,3.753,1.521,3.54,98.22303,-5.227,-4.004,57.06,0,109.2,13.74,-4.49,4.0
"2009-04-05 00:52:00",772279,15.55,41.25,3.893,1.396,3.522,98.21906,-5.237,-4.001,58.09,0,109.2,13.74,-4.50,3.2
"2009-04-05 00:52:30",772280,15.7,41.51,4.118,2.017,3.51,98.21366,-5.25,-4.002,58.02,0,109.2,13.74,-4.52,3.5
"2009-04-05 00:53:00",772281,15.89,42.51,2.995,1.257,3.623,98.21197,-5.255,-4.005,58.02,0,109.2,13.74,-4.52,4.5
"2009-04-05 00:53:30",772282,16.36,39.47,3.392,0.875,3.441,98.20772,-5.266,-4.011,58.14,0,109.2,13.74,-4.53,1.5
"2009-04-05 00:54:00",772283,16.33,40.53,2.883,1.196,3.575,98.20913,-5.262,-4.011,56.76,0,109.2,13.74,-4.53,2.5
"2009-04-05 00:54:30",772284,16.47,41.24,3.154,1.737,3.442,98.21197,-5.255,-4.012,56.8,0,109.2,13.74,-4.52,3.2
"2009-04-05 00:55:00",772285,15.22,39.49,2.603,1.387,3.621,98.21395,-5.25,-4.005,56.79,0,109.2,13.74,-4.52,1.5
"2009-04-05 00:55:30",772286,15.47,41.92,3.669,1.817,3.44,98.21254,-5.253,-3.994,57.03,0,109.3,13.74,-4.52,3.9
"2009-04-05 00:56:00",772287,16.3,41.25,3.398,2.207,3.447,98.21339,-5.251,-3.996,57.57,0,109.2,13.74,-4.52,3.2
"2009-04-05 00:56:30",772288,15.22,40.7,3.293,1.305,3.47,98.21367,-5.25,-3.999,58.12,0,109.2,13.74,-4.52,2.7
"2009-04-05 00:57:00",772289,15.38,41.01,3.543,1.68,3.651,98.21339,-5.251,-3.985,57.93,0,109.2,13.74,-4.52,3.0
"2009-04-05 00:57:30",772290,15.93,40.74,3.513,1.861,3.598,98.21084,-5.258,-4.008,57.52,0,109.2,13.74,-4.52,2.7
"2009-04-05 00:58:00",772291,16.74,42.84,3.787,2.001,3.577,98.2097,-5.261,-3.988,57.27,0,109.2,13.74,-4.53,4.8
"2009-04-05 00:58:30",772292,16.89,42.86,3.232,1.48,3.52,98.20912,-5.262,-4.002,58.32,0,109.2,13.74,-4.53,4.9
"2009-04-05 00:59:00",772293,17.49,44.34,2.417,1.693,3.522,98.20742,-5.266,-3.986,58.48,0,109.2,13.74,-4.53,6.3
"2009-04-05 00:59:30",772294,17.77,46.14,4.861,1.492,3.474,98.20487,-5.273,-3.99,59.31,0,109.2,13.74,-4.54,8.1
"2009-04-05 01:00:00",772295,15.92,43.72,3.701,2.373,3.474,98.19921,-5.287,-4.007,59.8,0,109.2,13.74,-4.55,5.7
"2009-04-05 01:00:30",772296,15.49,41.99,4.14,2.52,3.411,98.19722,-5.292,-4.011,59.84,0,109.2,13.75,-4.56,4.0
"2009-04-05 01:01:00",772297,15.4,40.39,4.196,2.165,3.771,98.19666,-5.294,-4.007,60.65,0,109.2,13.75,-4.56,2.4
"2009-04-05 01:01:30",772298,16.96,43.71,3.128,1.54,3.391,98.19749,-5.292,-4.012,59.69,0,109.2,13.75,-4.56,5.7
"2009-04-05 01:02:00",772299,18.92,44.39,3.698,1.462,3.613,98.19749,-5.292,-4.017,59.81,0,109.2,13.75,-4.56,6.4
"2009-04-05 01:02:30",772300,17.51,42.15,3.915,1.745,3.631,98.19694,-5.293,-4.039,59.66,0,109.2,13.75,-4.56,4.2
"2009-04-05 01:03:00",772301,17.16,40.77,2.829,2.354,3.87,98.19694,-5.293,-4.028,57.65,0,109.2,13.75,-4.56,2.8
"2009-04-05 01:03:30",772302,16.99,41.51,3.595,1.391,3.687,98.20345,-5.276,-4.026,57.71,0,109.2,13.75,-4.54,3.5
"2009-04-05 01:04:00",772303,17.38,42.3,4.444,1.907,3.703,98.21195,-5.255,-4.016,58.02,0,109.2,13.75,-4.52,4.3
"2009-04-05 01:04:30",772304,17.85,41.81,3.806,1.743,3.612,98.22527,-5.221,-4.008,58.32,0,109.2,13.75,-4.49,3.8
"2009-04-05 01:05:00",772305,17.39,43.99,4.486,2.934,3.766,98.23235,-5.203,-3.988,58.77,0,109.2,13.75,-4.47,6.0
"2009-04-05 01:05:30",772306,16.11,42.62,3.204,2.294,3.535,98.23264,-5.202,-3.975,59.39,0,109.2,13.75,-4.47,4.6
"2009-04-05 01:06:00",772307,17.22,43.44,4.137,2.643,3.573,98.23319,-5.201,-3.976,60.3,0,109.2,13.75,-4.47,5.4
"2009-04-05 01:06:30",772308,15.06,38.7,3.192,1.041,3.81,98.2318,-5.204,-3.983,59.28,0,109.2,13.75,-4.47,0.7
"2009-04-05 01:07:00",772309,16,41.94,3.651,1.262,3.598,98.23208,-5.204,-4,57.78,0,109.2,13.75,-4.47,3.9
"2009-04-05 01:07:30",772310,14.61,39.19,3.02,1.038,3.624,98.23235,-5.203,-3.982,58.53,0,109.2,13.75,-4.47,1.2
"2009-04-05 01:08:00",772311,15.53,41.78,3.38,1.552,3.4,98.23264,-5.202,-3.971,58.26,0,109.2,13.75,-4.47,3.8
"2009-04-05 01:08:30",772312,14.4,40.76,3.776,1.758,3.583,98.23291,-5.201,-3.965,59.68,0,109.2,13.75,-4.47,2.8
"2009-04-05 01:09:00",772313,15.87,41.87,4.085,2.006,3.57,98.23347,-5.2,-3.951,58.85,0,109.2,13.75,-4.47,3.9
"2009-04-05 01:09:30",772314,16.34,40.43,3.839,1.899,3.388,98.23208,-5.204,-3.95,59.35,0,109.1,13.75,-4.47,2.4
"2009-04-05 01:10:00",772315,15.15,40.03,4.8,1.677,3.454,98.23486,-5.196,-3.937,59.45,0,109.2,13.74,-4.46,2.0
"2009-04-05 01:10:30",772316,15.92,42.14,4.658,2.188,3.399,98.23375,-5.199,-3.957,60.12,0,109.2,13.74,-4.47,4.1
"2009-04-05 01:11:00",772317,14.53,40.58,3.035,1.274,3.58,98.23319,-5.201,-3.959,60.77,0,109.2,13.74,-4.47,2.6
"2009-04-05 01:11:30",772318,15.23,40.73,3.085,1.142,3.485,98.23514,-5.196,-3.953,59.62,0,109.2,13.74,-4.46,2.7
"2009-04-05 01:12:00",772319,15.71,40.67,3.782,1.444,3.519,98.23653,-5.192,-3.96,58.9,0,109.2,13.74,-4.46,2.7
"2009-04-05 01:12:30",772320,15.53,40.01,3.539,1.23,3.52,98.2357,-5.194,-3.961,58.49,0,109.2,13.74,-4.46,2.0
"2009-04-05 01:13:00",772321,17.21,43.83,3.668,2.008,3.536,98.23653,-5.192,-3.946,58.93,0,109.2,13.74,-4.46,5.8
"2009-04-05 01:13:30",772322,16.79,40.4,3.878,1.777,3.488,98.23459,-5.197,-3.944,59.69,0,109.2,13.74,-4.46,2.4
"2009-04-05 01:14:00",772323,15.3,37.86,3.713,1.227,3.632,98.2382,-5.188,-3.957,59.18,0,109.2,13.74,-4.45,359.9
"2009-04-05 01:14:30",772324,15.37,38.66,4.017,1.133,3.632,98.23765,-5.189,-3.956,58.39,0,109.2,13.74,-4.46,0.7
"2009-04-05 01:15:00",772325,15.76,40.25,3.514,1.433,3.691,98.2382,-5.188,-3.951,58.73,0,109.2,13.74,-4.45,2.2
"2009-04-05 01:15:30",772326,15.06,40.14,2.509,1.267,3.568,98.23849,-5.187,-3.937,58.36,0,109.2,13.75,-4.45,2.1
"2009-04-05 01:16:00",772327,15.23,38.95,3.076,1.055,3.598,98.24049,-5.182,-3.952,57.63,0,109.2,13.75,-4.45,1.0
"2009-04-05 01:16:30",772328,14.81,39.02,4.094,1.087,3.553,98.24755,-5.164,-3.937,57.81,0,109.2,13.75,-4.43,1.0
"2009-04-05 01:17:00",772329,14.68,38.6,3.046,1.076,3.672,98.24846,-5.162,-3.936,57.8,0,109.2,13.75,-4.43,0.6
"2009-04-05 01:17:30",772330,14.31,39.7,3.488,0.791,3.457,98.25327,-5.15,-3.924,57.91,0,109.2,13.75,-4.42,1.7
"2009-04-05 01:18:00",772331,14.77,40.41,2.819,0.821,3.476,98.25468,-5.146,-3.909,58.26,0,109.2,13.75,-4.41,2.4
"2009-04-05 01:18:30",772332,14.55,39.99,2.898,0.957,3.454,98.26289,-5.125,-3.918,57.56,0,109.2,13.75,-4.39,2.0
"2009-04-05 01:19:00",772333,15.81,41.26,3.564,1.608,3.617,98.26659,-5.116,-3.903,58.07,0,109.2,13.75,-4.38,3.3
"2009-04-05 01:19:30",772334,14.18,42.53,3.978,1.721,3.399,98.27112,-5.104,-3.902,59.14,0,109.2,13.75,-4.37,4.5
"2009-04-05 01:20:00",772335,15.88,40.59,4.252,1.811,3.538,98.26799,-5.112,-3.886,59.81,0,109.2,13.75,-4.38,2.6
"2009-04-05 01:20:30",772336,14.15,38.73,3.121,1.495,3.449,98.26521,-5.119,-3.902,58.72,0,109.2,13.75,-4.39,0.7
"2009-04-05 01:21:00",772337,15.3,41.06,3.843,1.922,3.674,98.26264,-5.126,-3.894,58.85,0,109.2,13.75,-4.39,3.1
"2009-04-05 01:21:30",772338,14.78,39.71,3.304,1.159,3.564,98.26854,-5.111,-3.882,57.98,0,109.2,13.75,-4.38,1.7
"2009-04-05 01:22:00",772339,14.3,40.12,3.06,1.31,3.49,98.27334,-5.098,-3.886,58.35,0,109.2,13.75,-4.36,2.1
"2009-04-05 01:22:30",772340,14.8,39.88,3.264,1.187,3.506,98.27224,-5.101,-3.895,58.31,0,109.2,13.75,-4.37,1.9
"2009-04-05 01:23:00",772341,15.36,38.97,2.974,1.005,3.697,98.27419,-5.096,-3.894,57.11,0,109.2,13.75,-4.36,1.0
"2009-04-05 01:23:30",772342,15.74,37.08,2.696,0.972,3.724,98.27335,-5.098,-3.878,56.98,0,109.2,13.75,-4.36,359.1
"2009-04-05 01:24:00",772343,14.56,37.1,2.946,0.959,3.552,98.27476,-5.095,-3.873,56.71,0,109.2,13.75,-4.36,359.1
"2009-04-05 01:24:30",772344,14.18,37.73,3.083,1,3.57,98.27902,-5.084,-3.867,57.33,0,109.2,13.75,-4.35,359.7
"2009-04-05 01:25:00",772345,14.45,36.82,3.653,1.059,3.591,98.28696,-5.064,-3.844,58.02,0,109.2,13.75,-4.33,358.8
"2009-04-05 01:25:30",772346,15.22,36.79,4.03,1.065,3.485,98.28753,-5.062,-3.838,58,0,109.2,13.75,-4.33,358.8
"2009-04-05 01:26:00",772347,15.28,40.2,3.865,2.265,3.496,98.29401,-5.046,-3.824,57.54,0,109.2,13.75,-4.31,2.2
"2009-04-05 01:26:30",772348,13.89,38.37,2.625,0.971,3.511,98.29377,-5.046,-3.824,58.21,0,109.2,13.74,-4.31,0.4
"2009-04-05 01:27:00",772349,14.77,38.59,3.405,1.079,3.662,98.29542,-5.042,-3.823,57.54,0,109.2,13.74,-4.31,0.6
"2009-04-05 01:27:30",772350,15.14,40.74,3.983,1.22,3.428,98.29878,-5.034,-3.821,58.04,0,109.2,13.74,-4.30,2.7
"2009-04-05 01:28:00",772351,16.87,39.15,3.011,1.709,3.551,98.29429,-5.045,-3.81,57.99,0,109.2,13.74,-4.31,1.2
"2009-04-05 01:28:30",772352,15.82,37.45,4.074,1.196,3.742,98.2943,-5.045,-3.813,57.54,0,109.2,13.74,-4.31,359.5
"2009-04-05 01:29:00",772353,15.53,35.17,4.284,1.113,3.799,98.29825,-5.035,-3.811,57.29,0,109.2,13.74,-4.30,357.2
"2009-04-05 01:29:30",772354,15,34.85,4.375,1.569,3.707,98.29825,-5.035,-3.815,57.74,0,109.2,13.74,-4.30,356.9
"2009-04-05 01:30:00",772355,14.97,31.96,3.794,1.101,3.511,98.29826,-5.035,-3.799,58.42,0,109.2,13.74,-4.30,354.0
"2009-04-05 01:30:30",772356,14.29,33.12,3.224,1.087,3.484,98.29321,-5.048,-3.813,57.98,0,109.2,13.74,-4.31,355.1
"2009-04-05 01:31:00",772357,13.28,33.98,4.574,0.85,3.663,98.29094,-5.054,-3.808,57.97,0,109.2,13.74,-4.32,356.0
"2009-04-05 01:31:30",772358,13.81,34.73,2.773,1.003,3.494,98.28699,-5.064,-3.792,59.07,0,109.2,13.74,-4.33,356.7
"2009-04-05 01:32:00",772359,12.91,38.08,3.772,1.042,3.397,98.28494,-5.069,-3.798,58.83,0,109.2,13.75,-4.33,0.1
"2009-04-05 01:32:30",772360,13.25,37.37,3.866,1.086,3.296,98.28379,-5.072,-3.784,58.63,0,109.2,13.75,-4.34,359.4
"2009-04-05 01:33:00",772361,13.34,36.63,3.857,0.959,3.454,98.28628,-5.066,-3.799,58.69,0,109.2,13.75,-4.33,358.6
"2009-04-05 01:33:30",772362,13.96,37.93,3.996,1.623,3.305,98.28345,-5.073,-3.793,58.17,0,109.2,13.75,-4.34,359.9
"2009-04-05 01:34:00",772363,14.54,35.33,4.077,1.128,3.334,98.28317,-5.073,-3.798,57.79,0,109.2,13.75,-4.34,357.3
"2009-04-05 01:34:30",772364,14.03,37.43,3.635,1.305,3.346,98.28397,-5.071,-3.802,57.36,0,109.2,13.75,-4.34,359.4
"2009-04-05 01:35:00",772365,13.11,38.3,4.22,1.33,3.542,98.28035,-5.081,-3.814,56.88,0,109.2,13.75,-4.35,0.3
"2009-04-05 01:35:30",772366,13.1,42.82,4.155,1.474,3.419,98.28202,-5.076,-3.818,57.79,0,109.2,13.75,-4.34,4.8
"2009-04-05 01:36:00",772367,14.28,37.74,3.987,1.696,3.381,98.28146,-5.078,-3.802,57.72,0,109.2,13.75,-4.34,359.7
"2009-04-05 01:36:30",772368,13.88,36.44,4.338,1.316,3.523,98.2834,-5.073,-3.798,57.42,0,109.2,13.75,-4.34,358.4
"2009-04-05 01:37:00",772369,15.42,38.22,3.164,1.327,3.477,98.28257,-5.075,-3.816,57.02,0,109.2,13.75,-4.34,0.2
"2009-04-05 01:37:30",772370,14.31,38.18,2.607,2.12,3.392,98.28316,-5.073,-3.805,56.89,0,109.2,13.75,-4.34,0.2
"2009-04-05 01:38:00",772371,13.11,40.66,3.683,1.281,3.314,98.28568,-5.067,-3.816,57.69,0,109.2,13.75,-4.33,2.7
"2009-04-05 01:38:30",772372,13.4,42.44,4.622,1.419,3.277,98.28484,-5.069,-3.831,58.39,0,109.2,13.75,-4.34,4.4
"2009-04-05 01:39:00",772373,12.8,38.6,5.368,1.312,3.389,98.2823,-5.076,-3.814,58.98,0,109.2,13.75,-4.34,0.6
"2009-04-05 01:39:30",772374,12.81,38.8,4.359,0.964,3.459,98.28144,-5.078,-3.796,58.99,0,109.2,13.75,-4.34,0.8
"2009-04-05 01:40:00",772375,14.48,37.45,4.817,2.147,3.459,98.28115,-5.079,-3.8,58.79,0,109.2,13.75,-4.34,359.5
"2009-04-05 01:40:30",772376,15.76,42.53,3.862,1.757,3.388,98.28088,-5.079,-3.821,58.01,0,109.2,13.75,-4.35,4.5
"2009-04-05 01:41:00",772377,13.42,41.51,4.371,1.36,3.423,98.28282,-5.074,-3.826,58.41,0,109.2,13.75,-4.34,3.5
"2009-04-05 01:41:30",772378,14.74,40.25,3.533,1.625,3.59,98.27976,-5.082,-3.823,58.29,0,109.2,13.75,-4.35,2.2
"2009-04-05 01:42:00",772379,13.1,37.34,3.844,0.936,3.446,98.28171,-5.077,-3.824,57.89,0,109.2,13.75,-4.34,359.3
"2009-04-05 01:42:30",772380,12.77,38.75,3.665,0.825,3.428,98.28115,-5.079,-3.838,57.26,0,109.2,13.75,-4.34,0.8
"2009-04-05 01:43:00",772381,12.87,38.04,4.462,0.712,3.507,98.28226,-5.076,-3.841,57.14,0,109.2,13.74,-4.34,0.0
"2009-04-05 01:43:30",772382,14.12,41.58,4.548,1.391,3.359,98.27976,-5.082,-3.853,57.59,0,109.2,13.74,-4.35,3.6
"2009-04-05 01:44:00",772383,14.23,40.55,4.66,1.771,3.324,98.28282,-5.074,-3.842,58.65,0,109.2,13.74,-4.34,2.5
"2009-04-05 01:44:30",772384,12.13,39.9,3.99,0.892,3.46,98.28199,-5.076,-3.834,58.8,0,109.2,13.74,-4.34,1.9
"2009-04-05 01:45:00",772385,12.15,37.84,4.2,0.936,3.521,98.28059,-5.08,-3.851,59.14,0,109.2,13.74,-4.35,359.8
"2009-04-05 01:45:30",772386,13.24,39.47,3.612,0.941,3.289,98.28254,-5.075,-3.842,58.84,0,109.1,13.74,-4.34,1.5
"2009-04-05 01:46:00",772387,13.72,39.49,3.832,1.202,3.377,98.28226,-5.076,-3.844,57.85,0,109.2,13.74,-4.34,1.5
"2009-04-05 01:46:30",772388,12.8,41.69,4.242,1.33,3.298,98.28422,-5.071,-3.866,57.94,0,109.2,13.74,-4.34,3.7
"2009-04-05 01:47:00",772389,12.2,39.96,4.019,0.915,3.403,98.28171,-5.077,-3.856,58.43,0,109.2,13.74,-4.34,2.0
"2009-04-05 01:47:30",772390,12.53,39.44,4.431,1.178,3.379,98.28199,-5.076,-3.849,59.07,0,109.2,13.74,-4.34,1.4